FW6484 Weather Reports


time (UTC)temp
F
wind
direction
speed
knots
gust
knots
rain 1hr
in
rain 24hr
in
rain mn
in
humidity
%
barometer
mb
20260502183040 56 311 0.9 4.3 0.00 0.00 0.00 63 1013.6
20260502181544 56 284 0.9 3.5 0.00 0.00 0.00 66 1013.6
20260502163049 56 314 1.7 5.2 0.00 0.00 0.00 73 1014.7
20260502161539 55 0 0.9 3.5 0.00 0.00 0.00 74 1015.1
20260502151557 55 284 0.9 3.5 0.00 0.00 0.00 73 1014.8
20260502123052 52 313 0.0 3.5 0.00 0.00 0.00 79 1014.1
20260502121547 52 0 0.0 2.6 0.00 0.00 0.00 80 1013.8
20260502114544 51 0 0.0 1.7 0.00 0.00 0.00 84 1014.0
20260502113041 51 0 0.0 2.6 0.00 0.00 0.00 83 1013.9
20260502111547 51 0 0.0 1.7 0.00 0.00 0.00 85 1013.8
20260502110053 51 0 0.0 1.7 0.00 0.00 0.00 86 1014.0
20260502104549 51 329 0.0 2.6 0.00 0.00 0.00 83 1014.1
20260502103045 51 332 0.0 2.6 0.00 0.00 0.00 85 1014.0
20260502101556 51 318 0.0 0.9 0.00 0.00 0.00 87 1014.1
20260502100107 51 0 0.0 0.9 0.00 0.00 0.00 89 1014.3
20260502070047 50 0 0.0 0.9 0.00 0.00 0.00 92 1013.1
20260502064553 50 0 0.0 2.6 0.00 0.00 0.00 92 1013.3
20260502063045 50 320 0.9 2.6 0.00 0.00 0.00 91 1013.4
20260502061548 50 329 0.9 1.7 0.00 0.00 0.00 91 1013.5
20260502060042 50 0 0.0 0.9 0.00 0.00 0.00 91 1013.1
20260502054547 50 0 0.0 1.7 0.00 0.00 0.00 90 1013.1
20260502053052 50 0 0.0 0.0 0.00 0.00 0.00 90 1013.2
20260502051548 50 0 0.0 0.0 0.00 0.00 0.00 90 1013.3
20260502050048 50 0 0.0 0.0 0.00 0.00 0.00 89 1013.6
20260502044549 50 0 0.0 0.9 0.00 0.00 0.00 89 1013.7
20260502043042 50 0 0.0 0.0 0.00 0.00 0.00 88 1013.6
20260502041539 51 0 0.0 0.9 0.00 0.00 0.00 88 1013.7
20260502040040 51 0 0.0 0.9 0.00 0.00 0.00 87 1013.8
20260502034546 51 0 0.0 0.9 0.00 0.00 0.00 87 1013.8
20260502033042 51 0 0.0 0.9 0.00 0.00 0.00 86 1013.8
20260502031550 51 0 0.0 1.7 0.00 0.00 0.00 85 1013.8
20260502030039 52 0 0.0 0.9 0.00 0.00 0.00 85 1013.9
20260502024553 52 0 0.0 0.9 0.00 0.00 0.00 85 1013.7
20260502023045 52 0 0.0 0.9 0.00 0.00 0.00 84 1013.8
20260502021541 52 0 0.0 1.7 0.00 0.00 0.00 83 1013.9
20260502020042 53 0 0.0 1.7 0.00 0.00 0.00 83 1013.9
20260502014540 53 0 0.0 1.7 0.00 0.00 0.00 83 1013.9
20260502013047 53 0 0.0 1.7 0.00 0.00 0.00 83 1013.8
20260502011545 54 131 0.0 2.6 0.00 0.00 0.00 83 1013.7
20260502010043 54 0 0.0 1.7 0.00 0.00 0.00 81 1013.5
20260502004550 54 0 0.0 1.7 0.00 0.00 0.00 81 1013.6
20260502003039 55 0 0.0 1.7 0.00 0.00 0.00 80 1013.4
20260502001535 55 75 0.0 1.7 0.00 0.00 0.00 79 1013.0
20260502000048 56 183 0.0 1.7 0.00 0.00 0.00 77 1013.0
20260501234547 57 183 0.0 1.7 0.00 0.00 0.00 76 1013.1
20260501233043 58 102 0.0 1.7 0.00 0.00 0.00 73 1013.1
20260501231548 59 140 0.0 2.6 0.00 0.00 0.00 72 1012.9
20260501230057 59 142 0.9 2.6 0.00 0.00 0.00 69 1013.1
20260501224547 60 140 0.9 2.6 0.00 0.00 0.00 68 1013.1
20260501223053 60 109 0.0 3.5 0.00 0.00 0.00 68 1013.2
20260501221542 61 244 0.0 4.3 0.00 0.00 0.00 67 1013.2
20260501220046 61 134 0.9 5.2 0.00 0.00 0.00 65 1013.1
20260501214555 62 134 0.0 3.5 0.00 0.00 0.00 63 1013.1
20260501213047 63 161 0.9 4.3 0.00 0.00 0.00 60 1013.1
20260501211553 64 155 0.9 3.5 0.00 0.00 0.00 58 1013.2
20260501210048 64 140 1.7 4.3 0.00 0.00 0.00 58 1013.3
20260501204614 65 78 0.9 4.3 0.00 0.00 0.00 56 1013.5
20260501203050 66 214 0.9 5.2 0.00 0.00 0.00 54 1013.3
20260501201540 65 69 0.9 4.3 0.00 0.00 0.00 54 1013.4
20260501200047 66 74 0.9 3.5 0.00 0.00 0.00 49 1013.6
20260501194545 66 263 0.9 2.6 0.00 0.00 0.00 51 1013.9
20260501193045 67 199 0.0 3.5 0.00 0.00 0.00 47 1014.2
20260501191541 67 58 0.9 3.5 0.00 0.00 0.00 49 1014.2
20260501190040 66 0 0.0 5.2 0.00 0.00 0.00 54 1014.5
20260501184539 66 165 0.9 3.5 0.00 0.00 0.00 52 1014.8